Zurück zum Katalog

STARLINK-35546

AktivKommunikationVLEO
NORAD 66240·PAYLOAD·🇺🇸 United States

Gestartet Oct 29, 2025 von Cape Canaveral Space Force Station

Loading…

Nächste Überflüge (nächste 24 Stunden)

TLE

AktuellSource: CelesTrak SupGP

Epoche: Sep 14, 2026, 22:30 UTC

1 66240C 25245G   26257.93798611 -.00010069  00000+0 -29753-3 0  2575
2 66240  53.1582 123.4200 0001392  78.8637 207.4179 15.34391780    12

Verfolge STARLINK-35546 in Echtzeit mit AllMySat

Download on the App Store